Back to catalog

CZ-6A DEB

AlivePO
NORAD 60718·DEBRIS·🇨🇳 China

Launched Aug 6, 2024 from Taiyuan Satellite Launch Center

Loading…

Next Passes (next 24 hours)

TLE

FreshSource: Space-Track

Epoch: Sep 14, 2026, 01:36 UTC

1 60718U 24140DX  26257.06693423  .00000120  00000-0  62931-4 0  9996
2 60718  89.1627 281.3447 0104414 292.9399  66.0791 14.06027985107125

Track CZ-6A DEB in real time with AllMySat

Download on the App Store